Station 42019 (LLNR 1285) - FREEPORT, TX - 60 NM South of Freeport, TX Image indicating link to RSS feed of recent meteorological observations for station 42019


Conditions at 42019 as of
(5:50 am CDT)
1050 GMT on 04/16/2024:
     

Click on the graph icon in the table below to see a time series plot of the last five days of that observation.

5-day plot - Wind Direction Wind Direction (WDIR):SSE ( 150 deg true )
5-day plot - Wind Speed Wind Speed (WSPD): 13.6 kts
5-day plot - Wind Gust Wind Gust (GST): 17.5 kts
5-day plot - Wave Height Wave Height (WVHT): 5.9 ft
5-day plot - Dominant Wave Period Dominant Wave Period (DPD): 7 sec
5-day plot - Average Wave Period Average Period (APD): 5.5 sec
5-day plot - Mean Wave Direction Mean Wave Direction (MWD):SSE ( 150 deg true )
5-day plot - Atmospheric Pressure Atmospheric Pressure (PRES):29.81 in
5-day plot - Water Temperature Water Temperature (WTMP): 72.3 °F
5-day plot - Wind Speed at 10 Meters Wind Speed at 10 meters (WSPD10M): 15.5 kts
5-day plot - Wind Speed at 20 Meters Wind Speed at 20 meters (WSPD20M): 15.5 kts
5-day plot -  Wind Speed, Wind Gust and Atmospheric Pressure Combined plot of Wind Speed, Gust, and Air Pressure
Supplemental Measurements
Highest 1-minute Wind Speed
Time (CDT)5-day plot - 1-Minute Wind Speed WSPD 5-day plot - 1-Minute Wind Direction WDIR
5:47 am 15.5 kts-
Previous observations
TIME
(CDT)
5-day plot - Wind Direction
WDIR
 
5-day plot - Wind Speed
WSPD
kts
5-day plot - Wind Gust
GST
kts
5-day plot - Wave Height
WVHT
ft
5-day plot - Dominant Wave Period
DPD
sec
5-day plot - Average Wave Period
APD
sec
5-day plot - Mean Wave Direction
MWD
 
5-day plot - Atmospheric Pressure
PRES
in
5-day plot - Pressure Tendency
PTDY
in
5-day plot - Air Temperature
ATMP
°F
5-day plot - Water Temperature
WTMP
°F
5-day plot - Dew Point
DEWP
°F
5-day plot - Salinity
SAL
psu
5-day plot - Visibility
VIS
nmi
5-day plot - Tide (above MLLW)
TIDE
ft
2024-04-16 05:40 amSSE 13.6 17.5----29.81-- 72.3----
2024-04-16 05:30 amSSE 13.6 17.5----29.81-- 72.3----
2024-04-16 05:20 amSSE 13.6 15.5 5.9 75.5 SE29.82-- 72.3----
2024-04-16 05:10 amSSE 13.6 17.5 5.9-5.5 SE29.81-- 72.3----
2024-04-16 05:00 amSSE 13.6 17.5----29.81-0.05- 72.3----
2024-04-16 04:50 amSSE 13.6 15.5 5.6 75.4SSE29.82-- 72.3----
2024-04-16 04:40 amSSE 13.6 15.5 5.6-5.4SSE29.82-- 72.3----
2024-04-16 04:30 amSSE 13.6 17.5----29.83-- 72.3----
2024-04-16 04:20 amSSE 13.6 17.5 5.6 75.3 SE29.83-- 72.3----
2024-04-16 04:10 amSSE 13.6 17.5 5.6-5.3 SE29.83-- 72.3----
2024-04-16 04:00 amSSE 13.6 15.5----29.83-0.05- 72.3----
2024-04-16 03:50 amSSE 13.6 17.5 5.2 75.2SSE29.84-- 72.3----
2024-04-16 03:40 amSSE 13.6 17.5----29.84-- 72.3----
2024-04-16 03:30 amSSE 13.6 15.5----29.84-- 72.3----
2024-04-16 03:20 amSSE 13.6 17.5 5.2 75.2 SE29.84-- 72.3----
2024-04-16 03:10 amSSE 13.6 17.5 5.2-5.2 SE29.84-- 72.5----
2024-04-16 03:00 amSSE 13.6 17.5----29.83-0.05- 72.5----
2024-04-16 02:50 amSSE 13.6 17.5 5.9 75.4SSE29.84-- 72.3----
2024-04-16 02:40 amSSE 15.5 17.5----29.84-- 72.3----
2024-04-16 02:30 amSSE 13.6 17.5----29.85-- 72.5----
2024-04-16 02:20 amSSE 13.6 17.5 5.2 75.3 SE29.85-- 72.5----
2024-04-16 02:10 amSSE 13.6 17.5----29.85-- 72.7----
2024-04-16 02:00 am SE 13.6 15.5----29.86-0.01- 72.7----
2024-04-16 01:50 amSSE 11.7 13.6 5.2 75.2SSE29.87-- 72.7----
2024-04-16 01:40 amSSE 11.7 15.5----29.87-- 72.5----
2024-04-16 01:30 amSSE 11.7 15.5----29.88-- 72.5----
2024-04-16 01:20 amSSE 11.7 13.6 5.6 75.2SSE29.88-- 72.5----
2024-04-16 01:10 amSSE 11.7 15.5 5.6-5.2SSE29.88-- 72.7----
2024-04-16 01:00 amSSE 11.7 13.6----29.88+0.01- 72.7----
2024-04-16 12:50 amSSE 11.7 15.5 5.9 75.2SSE29.89-- 72.7----
2024-04-16 12:40 amSSE 11.7 13.6----29.89-- 72.7----
2024-04-16 12:30 amSSE 11.7 15.5----29.89-- 72.7----
2024-04-16 12:20 amSSE 13.6 17.5 5.9 75.1SSE29.89-- 72.7----
2024-04-16 12:10 amSSE 13.6 17.5 5.9-5.1SSE29.89-- 72.7----
2024-04-16 12:00 amSSE 13.6 17.5----29.89+0.04- 72.7----
2024-04-15 11:50 pmSSE 13.6 17.5 5.2 75.0SSE29.89-- 72.5----
2024-04-15 11:40 pmSSE 13.6 17.5----29.89-- 72.7----
2024-04-15 11:30 pmSSE 15.5 17.5----29.88-- 72.7----
2024-04-15 11:20 pmSSE 15.5 19.4 5.6 75.0SSE29.87-- 72.7----
2024-04-15 11:10 pmSSE 15.5 19.4 5.6-5.0SSE29.87-- 72.7----
2024-04-15 11:00 pmSSE 15.5 19.4----29.87+0.03- 72.7----
2024-04-15 10:50 pmSSE 13.6 17.5----29.88-- 72.7----
2024-04-15 10:40 pmSSE 13.6 17.5----29.88-- 72.7----
2024-04-15 10:30 pmSSE 13.6 17.5----29.88-- 72.7----
2024-04-15 10:20 pmSSE 13.6 17.5 5.2 64.9 SE29.88-- 72.7----
2024-04-15 10:10 pmSSE 13.6 17.5 5.2-4.9 SE29.88-- 72.9----
2024-04-15 10:00 pmSSE 15.5 17.5----29.87+0.02- 72.9----
2024-04-15 09:50 pmSSE 15.5 19.4 4.9 64.7SSE29.87-- 72.9----
2024-04-15 09:40 pmSSE 17.5 21.4----29.86-- 72.9----
2024-04-15 09:30 pm SE 15.5 19.4----29.86-- 72.9----
2024-04-15 09:20 pm SE 15.5 19.4 5.2 64.8 S29.85-- 72.9----
2024-04-15 09:10 pm SE 15.5 19.4 5.2-4.8 S29.85-- 73.0----
2024-04-15 09:00 pm SE 15.5 19.4----29.85-0.01- 73.0----
2024-04-15 08:50 pm SE 15.5 19.4 4.9 74.9SSE29.85-- 73.0----
2024-04-15 08:40 pm SE 15.5 17.5----29.85-- 73.0----
2024-04-15 08:30 pm SE 13.6 17.5----29.85-- 73.0----
2024-04-15 08:20 pm SE 13.6 17.5 4.9 74.7SSE29.85-- 73.0----
2024-04-15 08:10 pm SE 15.5 17.5 4.9-4.7SSE29.85-- 73.0----
2024-04-15 08:00 pm SE 13.6 17.5----29.85-0.03- 73.0----
2024-04-15 07:50 pm SE 13.6 17.5 4.6 74.8SSE29.85-- 73.0----
2024-04-15 07:40 pm SE 15.5 19.4 4.6-4.8SSE29.85-- 73.0----
2024-04-15 07:30 pm SE 15.5 19.4----29.84-- 73.0----
2024-04-15 07:20 pm SE 15.5 19.4 4.6 74.7 SE29.84-- 73.0----
2024-04-15 07:10 pm SE 15.5 19.4 4.6-4.7 SE29.85-- 73.0----
2024-04-15 07:00 pmSSE 15.5 17.5----29.85-0.03- 73.0----
2024-04-15 06:50 pm SE 13.6 17.5 4.6 74.6SSE29.85-- 73.0----
2024-04-15 06:40 pm SE 15.5 17.5----29.86-- 73.0----
2024-04-15 06:10 pm SE 13.6 19.4 4.6-4.7SSE29.86-- 73.0----
2024-04-15 06:00 pm SE 13.6 17.5----29.87-0.05- 73.0----
2024-04-15 05:50 pm SE 13.6 17.5 4.6 64.7SSE29.86-- 73.0----
2024-04-15 05:40 pm SE 13.6 19.4 4.6-4.7SSE29.86-- 73.0----
2024-04-15 05:30 pm SE 13.6 17.5----29.86-- 73.0----
2024-04-15 05:20 pm SE 13.6 17.5 4.6 64.8SSE29.87-- 73.0----
2024-04-15 05:10 pm SE 13.6 17.5 4.6-4.8SSE29.88-- 73.0----
2024-04-15 05:00 pm SE 13.6 17.5----29.88-0.05- 73.0----
2024-04-15 04:50 pm SE 13.6 17.5 4.3 64.6SSE29.88-- 73.0----
2024-04-15 04:40 pm SE 13.6 17.5----29.89-- 73.0----
2024-04-15 04:30 pm SE 15.5 19.4----29.88-- 73.2----
2024-04-15 04:20 pm SE 15.5 19.4 4.6 64.7 SE29.88-- 73.0----
2024-04-15 04:10 pm SE 15.5 17.5----29.89-- 73.0----
2024-04-15 04:00 pm SE 15.5 19.4----29.89-0.05- 73.0----
2024-04-15 03:50 pm SE 15.5 17.5 4.6 74.8SSE29.90-- 73.0----
2024-04-15 03:40 pm SE 15.5 17.5----29.90-- 73.0----
2024-04-15 03:30 pm SE 15.5 19.4----29.90-- 73.0----
2024-04-15 03:20 pm SE 13.6 19.4 4.6 64.7SSE29.91-- 73.0----
2024-04-15 03:10 pm SE 15.5 17.5 4.6-4.7SSE29.91-- 73.0----
2024-04-15 03:00 pmSSE 15.5 17.5----29.92-0.04- 73.0----
2024-04-15 02:50 pm SE 15.5 17.5 4.6 64.6SSE29.92-- 73.0----
2024-04-15 02:40 pm SE 15.5 17.5----29.92-- 73.0----
2024-04-15 02:30 pm SE 15.5 17.5----29.92-- 73.0----
2024-04-15 02:20 pm SE 15.5 17.5 4.3 64.6SSE29.93-- 73.0----
2024-04-15 02:10 pm SE 15.5 17.5----29.93-- 73.0----
2024-04-15 02:00 pm SE 13.6 17.5----29.93-0.04- 73.0----
2024-04-15 01:50 pm SE 15.5 19.4 4.6 74.6SSE29.93-- 73.0----
2024-04-15 01:40 pm SE 15.5 19.4----29.93-- 73.0----
2024-04-15 01:30 pm SE 15.5 19.4----29.93-- 73.0----
2024-04-15 01:20 pm SE 15.5 19.4 4.3 64.6SSE29.93-- 73.0----
2024-04-15 01:10 pm SE 15.5 17.5 4.3-4.6SSE29.93-- 73.0----
2024-04-15 01:00 pm SE 15.5 19.4----29.94-0.03- 73.0----
2024-04-15 12:50 pm SE 15.5 19.4 3.6 64.5SSE29.94-- 73.0----
2024-04-15 12:40 pm SE 13.6 19.4----29.94-- 73.0----
2024-04-15 12:30 pm SE 13.6 17.5----29.94-- 73.0----
2024-04-15 12:20 pm SE 13.6 17.5 4.6 64.8SSE29.95-- 72.9----
2024-04-15 12:10 pm SE 13.6 17.5 4.6-4.8SSE29.95-- 73.0----
2024-04-15 12:00 pm SE 13.6 17.5----29.96+0.00- 72.9----
2024-04-15 11:50 am SE 13.6 17.5 4.3 74.9SSE29.96-- 72.9----
2024-04-15 11:40 am SE 13.6 15.5----29.96-- 72.9----
2024-04-15 11:30 am SE 13.6 15.5----29.96-- 72.9----
2024-04-15 11:20 am SE 13.6 15.5 4.6 75.0SSE29.96-- 72.9----
2024-04-15 11:10 am SE 11.7 15.5 4.6-5.0SSE29.96-- 72.9----
2024-04-15 11:00 am SE 11.7 13.6----29.96+0.01- 72.9----
2024-04-15 10:50 am SE 11.7 15.5 4.3 74.9SSE29.96-- 72.9----
2024-04-15 10:40 am SE 11.7 15.5----29.96-- 72.9----
2024-04-15 10:30 am SE 11.7 15.5----29.96-- 72.9----
2024-04-15 10:20 am SE 11.7 15.5 4.3 65.0SSE29.96-- 72.9----
2024-04-15 10:10 am SE 11.7 15.5 4.3-5.0SSE29.96-- 72.9----
2024-04-15 10:00 am SE 11.7 13.6----29.97+0.04- 72.7----
2024-04-15 09:50 am SE 9.7 13.6 4.6 65.0SSE29.97-- 72.7----
2024-04-15 09:40 am SE 9.7 11.7----29.97-- 72.7----
2024-04-15 09:30 am SE 9.7 11.7----29.96-- 72.7----
2024-04-15 09:20 am SE 9.7 11.7 4.6 65.1 S29.96-- 72.7----
2024-04-15 09:10 am SE 9.7 11.7 4.6-5.1 S29.96-- 72.7----
2024-04-15 09:00 am SE 9.7 9.7----29.96+0.05- 72.7----
2024-04-15 08:50 am SE 9.7 11.7 4.6 75.0SSE29.96-- 72.7----
2024-04-15 08:40 am SE 7.8 11.7 4.6-5.0SSE29.96-- 72.7----
2024-04-15 08:30 am SE 7.8 9.7----29.96-- 72.7----
2024-04-15 08:20 am SE 5.8 7.8 4.9 65.0SSE29.96-- 72.7----
2024-04-15 08:10 am SE 5.8 7.8 4.9-5.0SSE29.95-- 72.7----
2024-04-15 08:00 amSSE 7.8 9.7----29.95+0.04- 72.7----
2024-04-15 07:50 amSSE 9.7 11.7 4.9 65.0SSE29.95-- 72.7----
2024-04-15 07:40 amSSE 9.7 11.7----29.94-- 72.7----
2024-04-15 07:30 amSSE 7.8 11.7----29.94-- 72.7----
2024-04-15 07:20 amSSE 7.8 9.7 4.6 64.9 S29.94-- 72.7----
2024-04-15 07:10 amSSE 7.8 11.7 4.6-4.9 S29.93-- 72.7----
2024-04-15 07:00 amSSE 7.8 9.7----29.93+0.02- 72.7----
2024-04-15 06:50 amSSE 9.7 11.7 4.9 65.0SSE29.93-- 72.7----
2024-04-15 06:40 amSSE 9.7 11.7----29.92-- 72.7----
2024-04-15 06:30 amSSE 9.7 11.7----29.92-- 72.7----
2024-04-15 06:20 amSSE 9.7 11.7 4.3 64.7SSE29.92-- 72.7----
2024-04-15 06:10 amSSE 9.7 13.6 4.3-4.7SSE29.91-- 72.7----
2024-04-15 06:00 amSSE 11.7 13.6----29.91-0.02- 72.7----
2024-04-15 05:50 amSSE 11.7 13.6 4.6 64.7SSE29.91-- 72.7----

Detailed Wave Summary
for 42019 as of (5:40 am CDT)
1040 GMT on 04/16/2024:

These wave data are displayed in rounded times.

     

Click on the graph icon in the table below to see a time series plot of the last five days of that observation.

5-day plot - Significant Wave Height Significant Wave Height (WVHT): 5.9 ft
5-day plot - Swell Height Swell Height (SwH): 3.9 ft
5-day plot - Swell Period Swell Period (SwP): 7.1 sec
5-day plot - Swell Direction Swell Direction (SwD):SSE
5-day plot - Wind Wave Height Wind Wave Height (WWH): 4.3 ft
5-day plot - Wind Wave Period Wind Wave Period (WWP): 5.9 sec
5-day plot - Wind Wave Direction Wind Wave Direction (WWD): S
5-day plot - Wave Steepness Wave Steepness (STEEPNESS): STEEP
5-day plot - Average Wave Period Average Wave Period (APD): 5.5 sec
Previous observations
TIME
(CDT)
5-day plot - Wave Height
WVHT
ft
5-day plot - Swell Height
SwH
ft
5-day plot - Swell Period
SwP
sec
5-day plot - Swell Direction
SwD
 
5-day plot - Wind Wave Height
WWH
ft
5-day plot - Wind Wave Period
WWP
sec
5-day plot - Wind Wave Direction
WWD
 
5-day plot - Wave Steepness
STEEPNESS
 
5-day plot - Average Wave Period
APD
sec
2024-04-16 05:10 am 5.9 3.9 7.1 SE 4.3 4.5 SSE STEEP 5.5
2024-04-16 04:40 am 5.6 4.3 6.7SSE 3.9 5.3 SE STEEP 5.4
2024-04-16 04:10 am 5.6 2.0 12.9SSE 5.2 7.1 SE STEEP 5.3
2024-04-16 03:40 am 5.2 3.3 7.1SSE 3.9 5.6 SSE STEEP 5.2
2024-04-16 03:10 am 5.2 0.0-- 5.2 6.7 SE STEEP 5.2
2024-04-16 02:40 am 5.9 2.3 11.4 S 5.2 7.1 SSE STEEP 5.4
2024-04-16 02:10 am 5.2 3.9 6.7 SE 3.6 4.2 SSE STEEP 5.3
2024-04-16 01:40 am 5.2 3.9 7.1SSE 3.3 4.8 SSE STEEP 5.2
2024-04-16 01:10 am 5.6 4.3 6.7SSE 3.6 5.3 SSE STEEP 5.2
2024-04-16 12:40 am 5.9 4.9 6.7SSE 3.3 5.3 SSE STEEP 5.2
2024-04-16 12:10 am 5.9 3.6 6.7SSE 4.6 5.3 SSE STEEP 5.1
2024-04-15 11:40 pm 5.2 2.0 12.1NNW 4.9 6.7 SSE STEEP 5.0
2024-04-15 11:10 pm 5.6 0.0-- 5.6 6.7 SSE STEEP 5.0
2024-04-15 10:10 pm 5.2 2.0 12.1 SE 4.9 6.2 SE STEEP 4.9
2024-04-15 09:40 pm 4.9 1.0 12.1 N 4.9 6.2 SSE STEEP 4.7
2024-04-15 09:10 pm 5.2 0.0-- 5.2 6.2 S STEEP 4.8
2024-04-15 08:40 pm 4.9 3.0 6.7SSE 3.9 5.3 SSE STEEP 4.9
2024-04-15 08:10 pm 4.9 1.6 11.4NNE 4.6 6.7 SSE STEEP 4.7
2024-04-15 07:40 pm 4.6 0.0-- 4.6 6.7 SSE STEEP 4.8
2024-04-15 07:10 pm 4.6 0.3 10.8 NW 4.6 6.7 SE STEEP 4.7
2024-04-15 06:40 pm 4.6 0.0-- 4.6 6.7 SSE STEEP 4.6
2024-04-15 06:10 pm 4.6 0.0-- 4.6 6.2 SSE STEEP 4.7
2024-04-15 05:40 pm 4.6 0.0-- 4.6 6.2 SSE STEEP 4.7
2024-04-15 05:10 pm 4.6 0.0-- 4.6 6.2 SSE STEEP 4.8
2024-04-15 04:40 pm 4.3 1.3 12.1 NW 4.3 5.9 SSE STEEP 4.6
2024-04-15 04:10 pm 4.6 0.0-- 4.6 5.9 SE STEEP 4.7
2024-04-15 03:40 pm 4.6 0.0-- 4.6 6.7 SSE STEEP 4.8
2024-04-15 03:10 pm 4.6 0.0-- 4.6 5.9 SSE STEEP 4.7
2024-04-15 02:40 pm 4.6 0.0-- 4.6 6.2 SSE STEEP 4.6
2024-04-15 02:10 pm 4.3 0.0-- 4.3 6.2 SSE STEEP 4.6
2024-04-15 01:40 pm 4.6 0.0-- 4.6 6.7 SSE STEEP 4.6
2024-04-15 01:10 pm 4.3 0.0-- 4.3 5.9 SSE STEEP 4.6
2024-04-15 12:40 pm 3.6 2.0 7.1SSE 3.3 6.2 SSE STEEP 4.5
2024-04-15 12:10 pm 4.6 0.0-- 4.6 6.2 SSE STEEP 4.8
2024-04-15 11:40 am 4.3 2.6 6.7SSE 3.6 5.3 S STEEP 4.9
2024-04-15 11:10 am 4.6 3.0 6.7SSE 3.3 4.3 SSE STEEP 5.0
2024-04-15 10:40 am 4.3 3.0 6.7SSE 3.3 5.9 S STEEP 4.9
2024-04-15 10:10 am 4.3 3.0 6.2SSE 3.3 4.3 SSE STEEP 5.0
2024-04-15 09:40 am 4.6 4.3 6.2SSE 2.0 4.2 S STEEP 5.0
2024-04-15 09:10 am 4.6 4.3 5.9 S 2.0 3.8 SSWVERY_STEEP 5.1
2024-04-15 08:40 am 4.6 4.3 6.7SSE 2.0 3.4 S STEEP 5.0
2024-04-15 08:10 am 4.9 4.6 6.2SSE 2.0 3.3 S STEEP 5.0
2024-04-15 07:40 am 4.9 4.6 6.2SSE 2.0 4.0 S STEEP 5.0
2024-04-15 07:10 am 4.6 4.3 5.9 S 2.0 4.0 SSWVERY_STEEP 4.9
2024-04-15 06:40 am 4.9 4.3 6.2SSE 2.3 4.0 SSE STEEP 5.0
2024-04-15 06:10 am 4.3 3.6 6.2SSE 2.6 4.5 S STEEP 4.7

Plot of wave energy versus frequency (and period)